ALSAT 1B

Last updated on Thu Nov 21 2024 00:02:27 GMT+0000 (Coordinated Universal Time)

1 41785U 16059C 24325.55808977 .00000836 00000+0 14246-3 0 9997 2 41785 97.8057 347.6451 0008043 269.2936 90.7350 14.71426617436191
UTC large
Height (km)
Speed (km/s)
/
Latitude / Longitude
Inclination (degrees)
Orbital Period (minutes)
Azimuth
Elevation
Range (km)
Doppler Factor

Next 0 passes for location: London (51.5072 / 0.1276)

Sorry there are no passes over London.